{"data":{"norad_id":64138,"intl_designator":"2025-111R","name":"STARLINK-34129","alt_names":[],"object_type":"PAYLOAD","status":"ACTIVE","operator":null,"country":"US","launch_date":"2025-05-24","launch_site_code":"AFETR","launch_vehicle":null,"mission":null,"orbit_class":"UNKNOWN","rcs_meters":null,"size_class":null,"mass_kg":null,"dimensions":null,"purposes":["comms"],"wikipedia_slug":null,"has_3d_model":false,"image_url":null,"decayed_at":null,"tle_current":{"epoch":"2026-09-20T04:00:16.019712Z","epoch_age_seconds":169206,"freshness":"FRESH","line1":"1 64138U 25111R   26263.16685208  .00011032  00000+0  40995-3 0  9993","line2":"2 64138  43.0033  59.7799 0001020 265.6308  94.4427 15.27568000 75259","mean_motion":15.27568,"eccentricity":0.000102,"inclination_deg":43.0033,"raan_deg":59.7799,"arg_perigee_deg":265.6308,"mean_anomaly_deg":94.4427,"bstar":0.00040995,"rev_number":7525,"period_min":94.267489237795,"perigee_km":482.38518394494,"apogee_km":483.78487323877,"semimajor_km":6861.2220285919,"source":"CELESTRAK","updated_at":"2026-09-21T09:00:35.235479Z"}}}